Погода в Маданге

Папуа-Новая Гвинея     5°13′46″S   145°47′05″E
темп.,
°C
ветер,
м/с
пор.,
м/с
влажн.,
%
обл.,
%
осадки,
мм/ч
давл.,
гПа
погр.,
м
17 мая, вт
вт1701:00+23зюз11885 0.0 101268
04:00+23з22918 0.0 101177
07:00+24зюз11895 0.0 101289
10:00+29в11657 0.0 1013843
13:00+30в326047 0.0 10111138
16:00+29всв336212 0.0 1009818
19:00+25всв12826 0.0 1011250
22:00+24з018538 0.0 1013200
18 мая, ср
ср1801:00+23з119294 0.0 101268
04:00+23з119214 0.0 101161
07:00+23з11895 0.0 101277
10:00+29в22653 0.0 1013793
13:00+30в32611 0.0 1010958
16:00+29всв33625 0.0 1009782
19:00+25всв13831 0.0 1010251
22:00+25всв12876 0.0 1012299
19 мая, чт
чт1901:00+24юз119125 0.1 1012145
04:00+23зюз119411 0.3 101174
07:00+24зюз11904 0.1 101381
10:00+29в13685 0.5 1013762
13:00+30в336513 0.6 10101105
16:00+29в347018 0.9 10081009
19:00+26в358669 0.1 1010331
22:00+26в258695 0.9 1012270
20 мая, пт
пт2001:00+24в249281 7.3 1011174
04:00+24вюв139286 18.8 1010158
07:00+24з119248 8.1 1012224
10:00+28юв247772 9.6 1013709
13:00+29в346712 0.7 10091102
16:00+28в357622 1.7 1008814
19:00+25всв248956 1.9 1010238
22:00+25всв129094 4.1 1011212
21 мая, сб
сб2101:00+24ююв139494 5.5 1010162
04:00+23ююз129483 9.9 1010129
07:00+23ююз119335 3.4 1011140
10:00+27вюв24838 6.6 1012685
13:00+29в356822 1.4 10091145
16:00+28в35727 2.1 1008960
19:00+25всв138523 0.7 1009265
22:00+25вюв138667 1.8 1011231